This is the latest recevied weather packets stored in our database for station/object KT2UU-13. If no packets are shown the sender has not sent any weather packets the latest 10 day(s).
| Time | Temp. | Humidity | Pressure | Rain* | Wind** | Luminosity | Snow |
|---|---|---|---|---|---|---|---|
| 1777855592 | 16.11° C | 52% | 1018.1 hPa | 0 mm | - | - | - |
| 1777855288 | 16.67° C | 52% | 1018 hPa | 0 mm | - | - | - |
| 1777854985 | 16.67° C | 52% | 1018 hPa | 0 mm | - | - | - |
| 1777854681 | 16.67° C | 54% | 1017.9 hPa | 0 mm | - | - | - |
| 1777854378 | 16.67° C | 56% | 1017.8 hPa | 0 mm | - | - | - |
| 1777854076 | 17.22° C | 52% | 1018 hPa | 0 mm | - | - | - |
| 1777853774 | 17.78° C | 48% | 1018.3 hPa | 0 mm | - | - | - |
| 1777853469 | 17.78° C | 47% | 1018.2 hPa | 0 mm | - | - | - |
| 1777853167 | 17.78° C | 47% | 1018 hPa | 0 mm | - | - | - |
| 1777852864 | 18.33° C | 47% | 1018.2 hPa | 0 mm | - | - | - |
| 1777852563 | 18.33° C | 47% | 1018.2 hPa | 0 mm | - | - | - |
| 1777852259 | 18.89° C | 44% | 1018.2 hPa | 0 mm | - | - | - |
| 1777851957 | 19.44° C | 43% | 1018 hPa | 0 mm | - | - | - |
| 1777851655 | 19.44° C | 42% | 1018.1 hPa | 0 mm | - | - | - |
| 1777851351 | 20° C | 42% | 1018 hPa | 0 mm | - | - | - |
| 1777851047 | 20.56° C | 40% | 1018.1 hPa | 0 mm | - | - | - |
| 1777850744 | 20.56° C | 39% | 1018.1 hPa | 0 mm | - | - | - |
| 1777850442 | 20.56° C | 41% | 1018.1 hPa | 0 mm | - | - | - |
| 1777850140 | 21.11° C | 40% | 1018 hPa | 0 mm | - | - | - |
| 1777849836 | 21.11° C | 42% | 1018 hPa | 0 mm | - | - | - |
| 1777849532 | 20.56° C | 42% | 1018 hPa | 0 mm | - | - | - |
| 1777849230 | 20.56° C | 42% | 1018.1 hPa | 0 mm | - | - | - |
| 1777848927 | 20.56° C | 40% | 1018 hPa | 0 mm | - | - | - |
| 1777848621 | 21.11° C | 40% | 1018.1 hPa | 0 mm | - | - | - |
| 1777848320 | 21.11° C | 40% | 1018.3 hPa | 0 mm | - | - | - |
* Rain latest hour (hover to see other rain measurements)
** Current wind speed in m/s (hover to see current wind gust speed)